Orbital Elements at Epoch 2459200.5 (2020-Dec-17.0) TDB
Reference: JPL 22 (heliocentric ecliptic J2000)
Element | Value | Uncertainty (1-sigma) | Units |
e | .1714181649244834 | 3.1073e-08 | |
a | 3.105832764738775 | 1.5493e-08 | au |
q | 2.57343661164492 | 9.4857e-08 | au |
i | 2.636710694970362 | 3.675e-06 | deg |
node | 96.68159798423962 | 7.6196e-05 | deg |
peri | 343.1810554382657 | 7.6962e-05 | deg |
M | 233.315223304024 | 1.2571e-05 | deg |
tp | 2459904.037833649800 (2022-Nov-20.53783365) | 7.3173e-05 | TDB |
period | 1999.242740283985 5.47 | 1.4959e-05 4.096e-08 | d yr |
n | .180068179189118 | 1.3474e-09 | deg/d |
Q | 3.638228917832631 | 1.8149e-08 | au |
|
| | Orbit Determination Parameters
Additional Information
|